Year,Month,Day,Hour,Minute,Value (Times are PST for temperature in C)
2016,07,02,00,00,15.60
2016,07,02,00,01,15.60
2016,07,02,00,02,15.60
2016,07,02,00,03,15.60
2016,07,02,00,04,15.60
2016,07,02,00,05,15.60
2016,07,02,00,06,15.60
2016,07,02,00,07,15.60
2016,07,02,00,08,15.60
2016,07,02,00,09,15.60
2016,07,02,00,10,15.60
2016,07,02,00,11,15.60
2016,07,02,00,12,15.60
2016,07,02,00,13,15.60
2016,07,02,00,14,15.60
2016,07,02,00,15,15.60
2016,07,02,00,16,15.60
2016,07,02,00,17,15.60
2016,07,02,00,18,15.60
2016,07,02,00,19,15.60
2016,07,02,00,20,15.60
2016,07,02,00,21,15.60
2016,07,02,00,22,15.60
2016,07,02,00,23,15.60
2016,07,02,00,24,15.60
2016,07,02,00,25,15.60
2016,07,02,00,26,15.60
2016,07,02,00,27,15.60
2016,07,02,00,28,15.60
2016,07,02,00,29,15.60
2016,07,02,00,30,15.60
2016,07,02,00,31,15.60
2016,07,02,00,32,15.70
2016,07,02,00,33,15.70
2016,07,02,00,34,15.70
2016,07,02,00,35,15.70
2016,07,02,00,36,15.70
2016,07,02,00,37,15.70
2016,07,02,00,38,15.70
2016,07,02,00,39,15.70
2016,07,02,00,40,15.70
2016,07,02,00,41,15.80
2016,07,02,00,42,15.80
2016,07,02,00,43,15.80
2016,07,02,00,44,15.80
2016,07,02,00,45,15.80
2016,07,02,00,46,15.80
2016,07,02,00,47,15.80
2016,07,02,00,48,15.80
2016,07,02,00,49,15.80
2016,07,02,00,50,15.90
2016,07,02,00,51,15.90
2016,07,02,00,52,15.90
2016,07,02,00,53,15.90
2016,07,02,00,54,15.90
2016,07,02,00,55,15.90
2016,07,02,00,56,15.90
2016,07,02,00,57,16.00
2016,07,02,00,58,16.00
2016,07,02,00,59,16.00
2016,07,02,01,00,16.00
2016,07,02,01,01,16.00
2016,07,02,01,02,16.00
2016,07,02,01,03,15.90
2016,07,02,01,04,15.90
2016,07,02,01,05,15.90
2016,07,02,01,06,15.90
2016,07,02,01,07,15.80
2016,07,02,01,08,15.80
2016,07,02,01,09,15.80
2016,07,02,01,10,15.80
2016,07,02,01,11,15.80
2016,07,02,01,12,15.70
2016,07,02,01,13,15.70
2016,07,02,01,14,15.70
2016,07,02,01,15,15.70
2016,07,02,01,16,15.70
2016,07,02,01,17,15.60
2016,07,02,01,18,15.60
2016,07,02,01,19,15.60
2016,07,02,01,20,15.60
2016,07,02,01,21,15.50
2016,07,02,01,22,15.50
2016,07,02,01,23,15.40
2016,07,02,01,24,15.40
2016,07,02,01,25,15.40
2016,07,02,01,26,15.30
2016,07,02,01,27,15.30
2016,07,02,01,28,15.30
2016,07,02,01,29,15.30
2016,07,02,01,30,15.30
2016,07,02,01,31,15.30
2016,07,02,01,32,15.30
2016,07,02,01,33,15.30
2016,07,02,01,34,15.30
2016,07,02,01,35,15.30
2016,07,02,01,36,15.30
2016,07,02,01,37,15.30
2016,07,02,01,38,15.30
2016,07,02,01,39,15.20
2016,07,02,01,40,15.20
2016,07,02,01,41,15.20
2016,07,02,01,42,15.20
2016,07,02,01,43,15.20
2016,07,02,01,44,15.20
2016,07,02,01,45,15.20
2016,07,02,01,46,15.20
2016,07,02,01,47,15.20
2016,07,02,01,48,15.20
2016,07,02,01,49,15.20
2016,07,02,01,50,15.20
2016,07,02,01,51,15.20
2016,07,02,01,52,15.20
2016,07,02,01,53,15.20
2016,07,02,01,54,15.20
2016,07,02,01,55,15.20
2016,07,02,01,56,15.20
2016,07,02,01,57,15.20
2016,07,02,01,58,15.20
2016,07,02,01,59,15.20
2016,07,02,02,00,15.20
2016,07,02,02,01,15.20
2016,07,02,02,02,15.20
2016,07,02,02,03,15.20
2016,07,02,02,04,15.20
2016,07,02,02,05,15.20
2016,07,02,02,06,15.20
2016,07,02,02,07,15.20
2016,07,02,02,08,15.20
2016,07,02,02,09,15.20
2016,07,02,02,10,15.20
2016,07,02,02,11,15.20
2016,07,02,02,12,15.20
2016,07,02,02,13,15.30
2016,07,02,02,14,15.30
2016,07,02,02,15,15.30
2016,07,02,02,16,15.30
2016,07,02,02,17,15.30
2016,07,02,02,18,15.30
2016,07,02,02,19,15.30
2016,07,02,02,20,15.30
2016,07,02,02,21,15.30
2016,07,02,02,22,15.30
2016,07,02,02,23,15.30
2016,07,02,02,24,15.30
2016,07,02,02,25,15.30
2016,07,02,02,26,15.30
2016,07,02,02,27,15.30
2016,07,02,02,28,15.30
2016,07,02,02,29,15.30
2016,07,02,02,30,15.30
2016,07,02,02,31,15.30
2016,07,02,02,32,15.20
2016,07,02,02,33,15.20
2016,07,02,02,34,15.20
2016,07,02,02,35,15.20
2016,07,02,02,36,15.10
2016,07,02,02,37,15.10
2016,07,02,02,38,15.10
2016,07,02,02,39,15.10
2016,07,02,02,40,15.10
2016,07,02,02,41,15.10
2016,07,02,02,42,15.10
2016,07,02,02,43,15.10
2016,07,02,02,44,15.10
2016,07,02,02,45,15.10
2016,07,02,02,46,15.20
2016,07,02,02,47,15.20
2016,07,02,02,48,15.20
2016,07,02,02,49,15.20
2016,07,02,02,50,15.20
2016,07,02,02,51,15.20
2016,07,02,02,52,15.30
2016,07,02,02,53,15.30
2016,07,02,02,54,15.30
2016,07,02,02,55,15.30
2016,07,02,02,56,15.30
2016,07,02,02,57,15.40
2016,07,02,02,58,15.40
2016,07,02,02,59,15.40
2016,07,02,03,00,15.40
2016,07,02,03,01,15.40
2016,07,02,03,02,15.40
2016,07,02,03,04,15.50
2016,07,02,03,05,15.50
2016,07,02,03,06,15.50
2016,07,02,03,07,15.50
2016,07,02,03,08,15.50
2016,07,02,03,09,15.50
2016,07,02,03,10,15.50
2016,07,02,03,11,15.50
2016,07,02,03,12,15.40
2016,07,02,03,13,15.40
2016,07,02,03,14,15.40
2016,07,02,03,15,15.40
2016,07,02,03,16,15.40
2016,07,02,03,17,15.40
2016,07,02,03,18,15.40
2016,07,02,03,19,15.40
2016,07,02,03,20,15.40
2016,07,02,03,21,15.30
2016,07,02,03,22,15.30
2016,07,02,03,23,15.30
2016,07,02,03,24,15.30
2016,07,02,03,25,15.30
2016,07,02,03,26,15.30
2016,07,02,03,27,15.30
2016,07,02,03,28,15.30
2016,07,02,03,29,15.30
2016,07,02,03,30,15.30
2016,07,02,03,31,15.30
2016,07,02,03,32,15.30
2016,07,02,03,33,15.30
2016,07,02,03,34,15.30
2016,07,02,03,35,15.30
2016,07,02,03,36,15.30
2016,07,02,03,37,15.30
2016,07,02,03,38,15.30
2016,07,02,03,39,15.30
2016,07,02,03,40,15.30
2016,07,02,03,41,15.40
2016,07,02,03,42,15.30
2016,07,02,03,43,15.40
2016,07,02,03,44,15.40
2016,07,02,03,45,15.40
2016,07,02,03,46,15.30
2016,07,02,03,47,15.30
2016,07,02,03,48,15.30
2016,07,02,03,49,15.30
2016,07,02,03,50,15.30
2016,07,02,03,51,15.30
2016,07,02,03,52,15.30
2016,07,02,03,53,15.20
2016,07,02,03,54,15.20
2016,07,02,03,55,15.20
2016,07,02,03,56,15.20
2016,07,02,03,57,15.20
2016,07,02,03,58,15.20
2016,07,02,03,59,15.20
2016,07,02,04,00,15.10
2016,07,02,04,01,15.10
2016,07,02,04,02,15.10
2016,07,02,04,03,15.10
2016,07,02,04,04,15.10
2016,07,02,04,05,15.00
2016,07,02,04,06,15.00
2016,07,02,04,07,15.00
2016,07,02,04,08,15.00
2016,07,02,04,09,14.90
2016,07,02,04,10,14.90
2016,07,02,04,11,14.90
2016,07,02,04,12,14.90
2016,07,02,04,13,14.90
2016,07,02,04,14,14.90
2016,07,02,04,15,14.80
2016,07,02,04,16,14.80
2016,07,02,04,17,14.80
2016,07,02,04,18,14.80
2016,07,02,04,19,14.80
2016,07,02,04,20,14.80
2016,07,02,04,21,14.80
2016,07,02,04,22,14.80
2016,07,02,04,23,14.70
2016,07,02,04,24,14.70
2016,07,02,04,25,14.70
2016,07,02,04,26,14.70
2016,07,02,04,27,14.70
2016,07,02,04,28,14.60
2016,07,02,04,29,14.60
2016,07,02,04,30,14.60
2016,07,02,04,31,14.60
2016,07,02,04,32,14.60
2016,07,02,04,33,14.60
2016,07,02,04,34,14.60
2016,07,02,04,35,14.60
2016,07,02,04,36,14.60
2016,07,02,04,37,14.60
2016,07,02,04,38,14.60
2016,07,02,04,39,14.60
2016,07,02,04,40,14.60
2016,07,02,04,41,14.60
2016,07,02,04,42,14.60
2016,07,02,04,43,14.60
2016,07,02,04,44,14.60
2016,07,02,04,45,14.60
2016,07,02,04,46,14.70
2016,07,02,04,47,14.70
2016,07,02,04,48,14.70
2016,07,02,04,49,14.70
2016,07,02,04,50,14.70
2016,07,02,04,51,14.80
2016,07,02,04,52,14.80
2016,07,02,04,53,14.80
2016,07,02,04,54,14.80
2016,07,02,04,55,14.80
2016,07,02,04,56,14.80
2016,07,02,04,57,14.80
2016,07,02,04,58,14.80
2016,07,02,04,59,14.80
2016,07,02,05,00,14.80
2016,07,02,05,01,14.80
2016,07,02,05,02,14.80
2016,07,02,05,03,14.80
2016,07,02,05,04,14.80
2016,07,02,05,05,14.80
2016,07,02,05,06,14.80
2016,07,02,05,07,14.80
2016,07,02,05,08,14.70
2016,07,02,05,09,14.70
2016,07,02,05,10,14.70
2016,07,02,05,11,14.70
2016,07,02,05,12,14.70
2016,07,02,05,13,14.60
2016,07,02,05,14,14.60
2016,07,02,05,15,14.60
2016,07,02,05,16,14.60
2016,07,02,05,17,14.60
2016,07,02,05,18,14.60
2016,07,02,05,19,14.50
2016,07,02,05,20,14.50
2016,07,02,05,21,14.50
2016,07,02,05,22,14.50
2016,07,02,05,23,14.50
2016,07,02,05,24,14.50
2016,07,02,05,25,14.50
2016,07,02,05,26,14.50
2016,07,02,05,27,14.50
2016,07,02,05,28,14.50
2016,07,02,05,29,14.50
2016,07,02,05,30,14.60
2016,07,02,05,31,14.60
2016,07,02,05,32,14.60
2016,07,02,05,33,14.60
2016,07,02,05,34,14.60
2016,07,02,05,35,14.60
2016,07,02,05,36,14.60
2016,07,02,05,37,14.60
2016,07,02,05,38,14.60
2016,07,02,05,39,14.70
2016,07,02,05,40,14.70
2016,07,02,05,41,14.70
2016,07,02,05,42,14.70
2016,07,02,05,43,14.70
2016,07,02,05,44,14.70
2016,07,02,05,45,14.70
2016,07,02,05,46,14.70
2016,07,02,05,47,14.70
2016,07,02,05,48,14.70
2016,07,02,05,49,14.70
2016,07,02,05,50,14.70
2016,07,02,05,51,14.70
2016,07,02,05,52,14.60
2016,07,02,05,53,14.60
2016,07,02,05,54,14.60
2016,07,02,05,55,14.60
2016,07,02,05,56,14.50
2016,07,02,05,57,14.50
2016,07,02,05,58,14.40
2016,07,02,05,59,14.40
2016,07,02,06,00,14.40
2016,07,02,06,01,14.40
2016,07,02,06,02,14.40
2016,07,02,06,03,14.30
2016,07,02,06,04,14.30
2016,07,02,06,05,14.30
2016,07,02,06,06,14.30
2016,07,02,06,07,14.30
2016,07,02,06,08,14.30
2016,07,02,06,09,14.30
2016,07,02,06,10,14.30
2016,07,02,06,11,14.20
2016,07,02,06,12,14.20
2016,07,02,06,13,14.20
2016,07,02,06,14,14.20
2016,07,02,06,15,14.20
2016,07,02,06,16,14.20
2016,07,02,06,17,14.20
2016,07,02,06,18,14.20
2016,07,02,06,19,14.20
2016,07,02,06,20,14.20
2016,07,02,06,21,14.20
2016,07,02,06,22,14.20
2016,07,02,06,23,14.20
2016,07,02,06,24,14.20
2016,07,02,06,25,14.20
2016,07,02,06,26,14.20
2016,07,02,06,27,14.20
2016,07,02,06,28,14.20
2016,07,02,06,29,14.20
2016,07,02,06,30,14.20
2016,07,02,06,31,14.20
2016,07,02,06,32,14.20
2016,07,02,06,33,14.10
2016,07,02,06,34,14.10
2016,07,02,06,35,14.10
2016,07,02,06,36,14.10
2016,07,02,06,37,14.10
2016,07,02,06,38,14.10
2016,07,02,06,39,14.10
2016,07,02,06,40,14.10
2016,07,02,06,41,14.10
2016,07,02,06,42,14.10
2016,07,02,06,43,14.10
2016,07,02,06,44,14.10
2016,07,02,06,45,14.10
2016,07,02,06,46,14.10
2016,07,02,06,47,14.10
2016,07,02,06,48,14.10
2016,07,02,06,49,14.10
2016,07,02,06,50,14.10
2016,07,02,06,51,14.10
2016,07,02,06,52,14.20
2016,07,02,06,53,14.20
2016,07,02,06,54,14.20
2016,07,02,06,55,14.20
2016,07,02,06,56,14.30
2016,07,02,06,57,14.30
2016,07,02,06,58,14.30
2016,07,02,06,59,14.40
2016,07,02,07,00,14.40
2016,07,02,07,01,14.50
2016,07,02,07,02,14.50
2016,07,02,07,03,14.60
2016,07,02,07,04,14.60
2016,07,02,07,05,14.60
2016,07,02,07,06,14.70
2016,07,02,07,07,14.70
2016,07,02,07,08,14.80
2016,07,02,07,09,14.80
2016,07,02,07,10,14.80
2016,07,02,07,11,14.90
2016,07,02,07,12,14.90
2016,07,02,07,13,15.00
2016,07,02,07,14,15.00
2016,07,02,07,15,15.10
2016,07,02,07,16,15.10
2016,07,02,07,17,15.10
2016,07,02,07,18,15.10
2016,07,02,07,19,15.10
2016,07,02,07,20,15.10
2016,07,02,07,21,15.10
2016,07,02,07,22,15.10
2016,07,02,07,23,15.10
2016,07,02,07,24,15.00
2016,07,02,07,25,15.00
2016,07,02,07,26,15.00
2016,07,02,07,27,15.00
2016,07,02,07,28,15.00
2016,07,02,07,29,15.00
2016,07,02,07,30,15.10
2016,07,02,07,31,15.10
2016,07,02,07,32,15.10
2016,07,02,07,33,15.10
2016,07,02,07,34,15.10
2016,07,02,07,35,15.10
2016,07,02,07,36,15.10
2016,07,02,07,37,15.10
2016,07,02,07,38,15.10
2016,07,02,07,39,15.10
2016,07,02,07,40,15.10
2016,07,02,07,41,15.10
2016,07,02,07,42,15.10
2016,07,02,07,43,15.10
2016,07,02,07,44,15.10
2016,07,02,07,45,15.20
2016,07,02,07,46,15.20
2016,07,02,07,47,15.10
2016,07,02,07,48,15.10
2016,07,02,07,49,15.10
2016,07,02,07,50,15.10
2016,07,02,07,51,15.10
2016,07,02,07,52,15.10
2016,07,02,07,53,15.10
2016,07,02,07,54,15.20
2016,07,02,07,55,15.20
2016,07,02,07,56,15.20
2016,07,02,07,57,15.20
2016,07,02,07,58,15.20
2016,07,02,07,59,15.10
2016,07,02,08,00,15.10
2016,07,02,08,01,15.10
2016,07,02,08,02,15.10
2016,07,02,08,03,15.00
2016,07,02,08,04,15.00
2016,07,02,08,05,15.00
2016,07,02,08,06,14.90
2016,07,02,08,07,14.90
2016,07,02,08,08,14.90
2016,07,02,08,09,14.90
2016,07,02,08,10,14.90
2016,07,02,08,11,14.90
2016,07,02,08,12,15.00
2016,07,02,08,13,15.00
2016,07,02,08,14,15.00
2016,07,02,08,15,15.00
2016,07,02,08,16,15.00
2016,07,02,08,17,15.00
2016,07,02,08,18,15.00
2016,07,02,08,19,15.00
2016,07,02,08,20,15.00
2016,07,02,08,21,15.00
2016,07,02,08,22,15.10
2016,07,02,08,23,15.10
2016,07,02,08,24,15.10
2016,07,02,08,25,15.10
2016,07,02,08,26,15.10
2016,07,02,08,27,15.20
2016,07,02,08,28,15.20
2016,07,02,08,29,15.20
2016,07,02,08,30,15.30
2016,07,02,08,31,15.30
2016,07,02,08,32,15.40
2016,07,02,08,33,15.40
2016,07,02,08,34,15.40
2016,07,02,08,35,15.40
2016,07,02,08,36,15.40
2016,07,02,08,37,15.40
2016,07,02,08,38,15.40
2016,07,02,08,39,15.50
2016,07,02,08,40,15.50
2016,07,02,08,41,15.50
2016,07,02,08,42,15.50
2016,07,02,08,43,15.50
2016,07,02,08,44,15.60
2016,07,02,08,45,15.60
2016,07,02,08,46,15.60
2016,07,02,08,47,15.60
2016,07,02,08,48,15.60
2016,07,02,08,49,15.60
2016,07,02,08,50,15.60
2016,07,02,08,51,15.60
2016,07,02,08,52,15.60
2016,07,02,08,53,15.70
2016,07,02,08,54,15.70
2016,07,02,08,55,15.70
2016,07,02,08,56,15.70
2016,07,02,08,57,15.80
2016,07,02,08,58,15.80
2016,07,02,08,59,15.80
2016,07,02,09,00,15.80
2016,07,02,09,01,15.80
2016,07,02,09,02,15.80
2016,07,02,09,03,15.80
2016,07,02,09,04,15.90
2016,07,02,09,05,15.90
2016,07,02,09,06,16.00
2016,07,02,09,07,16.00
2016,07,02,09,08,16.10
2016,07,02,09,09,16.10
2016,07,02,09,10,16.20
2016,07,02,09,11,16.20
2016,07,02,09,12,16.20
2016,07,02,09,13,16.20
2016,07,02,09,14,16.20
2016,07,02,09,15,16.20
2016,07,02,09,16,16.20
2016,07,02,09,17,16.20
2016,07,02,09,18,16.20
2016,07,02,09,19,16.30
2016,07,02,09,20,16.30
2016,07,02,09,21,16.30
2016,07,02,09,22,16.30
2016,07,02,09,23,16.30
2016,07,02,09,24,16.30
2016,07,02,09,25,16.30
2016,07,02,09,26,16.30
2016,07,02,09,27,16.40
2016,07,02,09,28,16.40
2016,07,02,09,29,16.40
2016,07,02,09,30,16.40
2016,07,02,09,31,16.40
2016,07,02,09,32,16.50
2016,07,02,09,33,16.50
2016,07,02,09,34,16.50
2016,07,02,09,35,16.60
2016,07,02,09,36,16.60
2016,07,02,09,37,16.60
2016,07,02,09,38,16.60
2016,07,02,09,39,16.70
2016,07,02,09,40,16.70
2016,07,02,09,41,16.70
2016,07,02,09,42,16.70
2016,07,02,09,43,16.80
2016,07,02,09,44,16.80
2016,07,02,09,45,16.80
2016,07,02,09,46,16.90
2016,07,02,09,47,16.90
2016,07,02,09,48,17.00
2016,07,02,09,49,17.10
2016,07,02,09,50,17.10
2016,07,02,09,51,17.20
2016,07,02,09,52,17.30
2016,07,02,09,53,17.30
2016,07,02,09,54,17.40
2016,07,02,09,55,17.40
2016,07,02,09,56,17.40
2016,07,02,09,57,17.50
2016,07,02,09,58,17.50
2016,07,02,09,59,17.60
2016,07,02,10,00,17.60
2016,07,02,10,01,17.60
2016,07,02,10,02,17.60
2016,07,02,10,03,17.70
2016,07,02,10,04,17.70
2016,07,02,10,05,17.70
2016,07,02,10,06,17.70
2016,07,02,10,07,17.80
2016,07,02,10,08,17.80
2016,07,02,10,09,17.90
2016,07,02,10,10,17.90
2016,07,02,10,11,18.00
2016,07,02,10,12,18.00
2016,07,02,10,13,18.00
2016,07,02,10,14,18.00
2016,07,02,10,15,18.00
2016,07,02,10,16,17.90
2016,07,02,10,17,17.90
2016,07,02,10,18,17.90
2016,07,02,10,19,17.90
2016,07,02,10,20,18.00
2016,07,02,10,21,18.00
2016,07,02,10,22,18.00
2016,07,02,10,23,18.00
2016,07,02,10,24,18.00
2016,07,02,10,25,18.00
2016,07,02,10,26,18.10
2016,07,02,10,27,18.10
2016,07,02,10,28,18.10
2016,07,02,10,29,18.10
2016,07,02,10,30,18.10
2016,07,02,10,31,18.20
2016,07,02,10,32,18.20
2016,07,02,10,33,18.20
2016,07,02,10,34,18.20
2016,07,02,10,35,18.20
2016,07,02,10,36,18.30
2016,07,02,10,37,18.30
2016,07,02,10,38,18.30
2016,07,02,10,39,18.30
2016,07,02,10,40,18.30
2016,07,02,10,41,18.30
2016,07,02,10,42,18.30
2016,07,02,10,43,18.20
2016,07,02,10,44,18.20
2016,07,02,10,45,18.10
2016,07,02,10,46,18.10
2016,07,02,10,47,18.10
2016,07,02,10,48,18.10
2016,07,02,10,49,18.20
2016,07,02,10,50,18.20
2016,07,02,10,51,18.30
2016,07,02,10,52,18.30
2016,07,02,10,53,18.30
2016,07,02,10,54,18.40
2016,07,02,10,55,18.30
2016,07,02,10,56,18.30
2016,07,02,10,57,18.40
2016,07,02,10,58,18.40
2016,07,02,10,59,18.50
2016,07,02,11,00,18.60
2016,07,02,11,01,18.60
2016,07,02,11,02,18.60
2016,07,02,11,03,18.60
2016,07,02,11,04,18.50
2016,07,02,11,05,18.40
2016,07,02,11,06,18.40
2016,07,02,11,07,18.30
2016,07,02,11,08,18.30
2016,07,02,11,09,18.30
2016,07,02,11,10,18.40
2016,07,02,11,11,18.40
2016,07,02,11,12,18.50
2016,07,02,11,13,18.50
2016,07,02,11,14,18.50
2016,07,02,11,15,18.60
2016,07,02,11,16,18.60
2016,07,02,11,17,18.60
2016,07,02,11,18,18.60
2016,07,02,11,19,18.60
2016,07,02,11,20,18.70
2016,07,02,11,21,18.80
2016,07,02,11,22,18.80
2016,07,02,11,23,18.80
2016,07,02,11,24,18.80
2016,07,02,11,25,18.90
2016,07,02,11,26,19.00
2016,07,02,11,27,19.00
2016,07,02,11,28,19.10
2016,07,02,11,29,19.10
2016,07,02,11,30,19.10
2016,07,02,11,31,19.20
2016,07,02,11,32,19.20
2016,07,02,11,33,19.20
2016,07,02,11,34,19.20
2016,07,02,11,35,19.10
2016,07,02,11,36,19.10
2016,07,02,11,37,19.20
2016,07,02,11,38,19.20
2016,07,02,11,39,19.20
2016,07,02,11,40,19.10
2016,07,02,11,41,19.10
2016,07,02,11,42,19.10
2016,07,02,11,43,19.10
2016,07,02,11,44,19.10
2016,07,02,11,45,19.20
2016,07,02,11,46,19.20
2016,07,02,11,47,19.20
2016,07,02,11,48,19.30
2016,07,02,11,49,19.30
2016,07,02,11,50,19.30
2016,07,02,11,51,19.30
2016,07,02,11,52,19.30
2016,07,02,11,53,19.30
2016,07,02,11,54,19.30
2016,07,02,11,55,19.30
2016,07,02,11,56,19.30
2016,07,02,11,57,19.30
2016,07,02,11,58,19.20
2016,07,02,11,59,19.20
2016,07,02,12,00,19.20
2016,07,02,12,01,19.20
2016,07,02,12,02,19.10
2016,07,02,12,03,19.10
2016,07,02,12,04,19.10
2016,07,02,12,05,19.10
2016,07,02,12,06,19.10
2016,07,02,12,07,19.10
2016,07,02,12,08,19.20
2016,07,02,12,09,19.30
2016,07,02,12,10,19.30
2016,07,02,12,11,19.40
2016,07,02,12,12,19.40
2016,07,02,12,13,19.50
2016,07,02,12,14,19.50
2016,07,02,12,15,19.40
2016,07,02,12,16,19.40
2016,07,02,12,17,19.40
2016,07,02,12,18,19.40
2016,07,02,12,19,19.40
2016,07,02,12,20,19.40
2016,07,02,12,21,19.40
2016,07,02,12,22,19.40
2016,07,02,12,23,19.50
2016,07,02,12,24,19.50
2016,07,02,12,25,19.50
2016,07,02,12,26,19.50
2016,07,02,12,27,19.50
2016,07,02,12,28,19.40
2016,07,02,12,29,19.40
2016,07,02,12,30,19.30
2016,07,02,12,31,19.30
2016,07,02,12,32,19.20
2016,07,02,12,33,19.10
2016,07,02,12,34,19.00
2016,07,02,12,35,18.90
2016,07,02,12,36,18.90
2016,07,02,12,37,18.90
2016,07,02,12,38,18.90
2016,07,02,12,39,18.90
2016,07,02,12,40,18.90
2016,07,02,12,41,18.90
2016,07,02,12,42,18.90
2016,07,02,12,43,18.90
2016,07,02,12,44,18.90
2016,07,02,12,45,18.80
2016,07,02,12,46,18.90
2016,07,02,12,47,18.90
2016,07,02,12,48,18.90
2016,07,02,12,49,18.90
2016,07,02,12,50,18.90
2016,07,02,12,51,19.00
2016,07,02,12,52,19.00
2016,07,02,12,53,19.00
2016,07,02,12,54,18.90
2016,07,02,12,55,19.00
2016,07,02,12,56,19.00
2016,07,02,12,57,19.10
2016,07,02,12,58,19.20
2016,07,02,12,59,19.30
2016,07,02,13,00,19.20
2016,07,02,13,01,19.20
2016,07,02,13,02,19.10
2016,07,02,13,03,19.10
2016,07,02,13,04,19.10
2016,07,02,13,05,19.10
2016,07,02,13,06,19.10
2016,07,02,13,07,19.10
2016,07,02,13,08,19.10
2016,07,02,13,09,19.10
2016,07,02,13,10,19.10
2016,07,02,13,11,19.20
2016,07,02,13,12,19.30
2016,07,02,13,13,19.30
2016,07,02,13,14,19.30
2016,07,02,13,15,19.30
2016,07,02,13,16,19.30
2016,07,02,13,17,19.30
2016,07,02,13,18,19.30
2016,07,02,13,19,19.30
2016,07,02,13,20,19.30
2016,07,02,13,21,19.30
2016,07,02,13,22,19.40
2016,07,02,13,23,19.40
2016,07,02,13,24,19.50
2016,07,02,13,25,19.50
2016,07,02,13,26,19.50
2016,07,02,13,27,19.60
2016,07,02,13,28,19.60
2016,07,02,13,29,19.60
2016,07,02,13,30,19.60
2016,07,02,13,31,19.60
2016,07,02,13,32,19.60
2016,07,02,13,33,19.60
2016,07,02,13,34,19.60
2016,07,02,13,35,19.50
2016,07,02,13,36,19.50
2016,07,02,13,37,19.50
2016,07,02,13,38,19.50
2016,07,02,13,39,19.50
2016,07,02,13,40,19.40
2016,07,02,13,41,19.40
2016,07,02,13,42,19.40
2016,07,02,13,43,19.30
2016,07,02,13,44,19.30
2016,07,02,13,45,19.30
2016,07,02,13,46,19.30
2016,07,02,13,47,19.30
2016,07,02,13,48,19.30
2016,07,02,13,49,19.40
2016,07,02,13,50,19.40
2016,07,02,13,51,19.40
2016,07,02,13,52,19.40
2016,07,02,13,53,19.40
2016,07,02,13,54,19.40
2016,07,02,13,55,19.30
2016,07,02,13,56,19.30
2016,07,02,13,57,19.30
2016,07,02,13,58,19.30
2016,07,02,13,59,19.30
2016,07,02,14,00,19.30
2016,07,02,14,01,19.30
2016,07,02,14,02,19.30
2016,07,02,14,03,19.30
2016,07,02,14,04,19.40
2016,07,02,14,05,19.30
2016,07,02,14,06,19.30
2016,07,02,14,07,19.30
2016,07,02,14,08,19.30
2016,07,02,14,09,19.30
2016,07,02,14,10,19.30
2016,07,02,14,11,19.30
2016,07,02,14,12,19.30
2016,07,02,14,13,19.30
2016,07,02,14,14,19.40
2016,07,02,14,15,19.40
2016,07,02,14,16,19.40
2016,07,02,14,17,19.40
2016,07,02,14,18,19.50
2016,07,02,14,19,19.50
2016,07,02,14,20,19.50
2016,07,02,14,21,19.60
2016,07,02,14,22,19.60
2016,07,02,14,23,19.60
2016,07,02,14,24,19.60
2016,07,02,14,25,19.60
2016,07,02,14,26,19.60
2016,07,02,14,27,19.60
2016,07,02,14,28,19.60
2016,07,02,14,29,19.60
2016,07,02,14,30,19.60
2016,07,02,14,31,19.50
2016,07,02,14,32,19.50
2016,07,02,14,33,19.40
2016,07,02,14,34,19.40
2016,07,02,14,35,19.40
2016,07,02,14,36,19.40
2016,07,02,14,37,19.30
2016,07,02,14,38,19.30
2016,07,02,14,39,19.30
2016,07,02,14,40,19.30
2016,07,02,14,41,19.30
2016,07,02,14,42,19.20
2016,07,02,14,43,19.10
2016,07,02,14,44,19.10
2016,07,02,14,45,19.10
2016,07,02,14,46,19.10
2016,07,02,14,47,19.10
2016,07,02,14,48,19.10
2016,07,02,14,49,19.10
2016,07,02,14,50,19.10
2016,07,02,14,51,19.10
2016,07,02,14,52,19.10
2016,07,02,14,53,19.10
2016,07,02,14,54,19.10
2016,07,02,14,55,19.10
2016,07,02,14,56,19.20
2016,07,02,14,57,19.20
2016,07,02,14,58,19.20
2016,07,02,14,59,19.20
2016,07,02,15,00,19.30
2016,07,02,15,01,19.30
2016,07,02,15,02,19.40
2016,07,02,15,03,19.40
2016,07,02,15,04,19.50
2016,07,02,15,05,19.50
2016,07,02,15,06,19.50
2016,07,02,15,07,19.50
2016,07,02,15,08,19.50
2016,07,02,15,09,19.40
2016,07,02,15,10,19.40
2016,07,02,15,11,19.40
2016,07,02,15,12,19.40
2016,07,02,15,13,19.40
2016,07,02,15,14,19.40
2016,07,02,15,15,19.40
2016,07,02,15,16,19.40
2016,07,02,15,17,19.40
2016,07,02,15,18,19.40
2016,07,02,15,19,19.40
2016,07,02,15,20,19.30
2016,07,02,15,21,19.30
2016,07,02,15,22,19.30
2016,07,02,15,23,19.20
2016,07,02,15,24,19.20
2016,07,02,15,25,19.20
2016,07,02,15,26,19.10
2016,07,02,15,27,19.10
2016,07,02,15,28,19.00
2016,07,02,15,29,19.00
2016,07,02,15,30,19.00
2016,07,02,15,31,18.90
2016,07,02,15,32,18.90
2016,07,02,15,33,18.90
2016,07,02,15,34,18.90
2016,07,02,15,35,18.90
2016,07,02,15,36,18.90
2016,07,02,15,37,18.90
2016,07,02,15,38,18.90
2016,07,02,15,39,18.90
2016,07,02,15,40,18.90
2016,07,02,15,41,18.90
2016,07,02,15,42,18.90
2016,07,02,15,43,18.90
2016,07,02,15,44,18.90
2016,07,02,15,45,18.90
2016,07,02,15,46,18.90
2016,07,02,15,47,18.90
2016,07,02,15,48,18.90
2016,07,02,15,49,18.90
2016,07,02,15,50,18.90
2016,07,02,15,51,18.90
2016,07,02,15,52,18.90
2016,07,02,15,53,18.90
2016,07,02,15,54,18.90
2016,07,02,15,55,18.80
2016,07,02,15,56,18.80
2016,07,02,15,57,18.80
2016,07,02,15,58,18.70
2016,07,02,15,59,18.70
2016,07,02,16,00,18.70
2016,07,02,16,01,18.70
2016,07,02,16,02,18.70
2016,07,02,16,03,18.60
2016,07,02,16,04,18.60
2016,07,02,16,05,18.60
2016,07,02,16,06,18.60
2016,07,02,16,07,18.60
2016,07,02,16,08,18.60
2016,07,02,16,09,18.50
2016,07,02,16,10,18.50
2016,07,02,16,11,18.50
2016,07,02,16,12,18.50
2016,07,02,16,13,18.60
2016,07,02,16,14,18.60
2016,07,02,16,15,18.60
2016,07,02,16,16,18.70
2016,07,02,16,17,18.80
2016,07,02,16,18,18.80
2016,07,02,16,19,18.80
2016,07,02,16,20,18.90
2016,07,02,16,21,18.90
2016,07,02,16,22,19.00
2016,07,02,16,23,19.10
2016,07,02,16,24,19.10
2016,07,02,16,25,19.10
2016,07,02,16,26,19.10
2016,07,02,16,27,19.10
2016,07,02,16,28,19.10
2016,07,02,16,29,19.10
2016,07,02,16,30,19.10
2016,07,02,16,31,19.10
2016,07,02,16,32,19.10
2016,07,02,16,33,19.10
2016,07,02,16,34,19.10
2016,07,02,16,35,19.10
2016,07,02,16,36,19.10
2016,07,02,16,37,19.00
2016,07,02,16,38,19.00
2016,07,02,16,39,19.00
2016,07,02,16,40,18.90
2016,07,02,16,41,18.90
2016,07,02,16,42,18.80
2016,07,02,16,43,18.80
2016,07,02,16,44,18.70
2016,07,02,16,45,18.70
2016,07,02,16,46,18.70
2016,07,02,16,47,18.60
2016,07,02,16,48,18.60
2016,07,02,16,49,18.60
2016,07,02,16,50,18.60
2016,07,02,16,51,18.60
2016,07,02,16,52,18.60
2016,07,02,16,53,18.60
2016,07,02,16,54,18.60
2016,07,02,16,55,18.60
2016,07,02,16,56,18.60
2016,07,02,16,57,18.60
2016,07,02,16,58,18.60
2016,07,02,16,59,18.60
2016,07,02,17,00,18.60
2016,07,02,17,01,18.70
2016,07,02,17,02,18.70
2016,07,02,17,03,18.70
2016,07,02,17,04,18.70
2016,07,02,17,05,18.70
2016,07,02,17,06,18.70
2016,07,02,17,07,18.70
2016,07,02,17,08,18.70
2016,07,02,17,09,18.70
2016,07,02,17,10,18.80
2016,07,02,17,11,18.80
2016,07,02,17,12,18.80
2016,07,02,17,13,18.80
2016,07,02,17,14,18.80
2016,07,02,17,15,18.80
2016,07,02,17,16,18.80
2016,07,02,17,17,18.70
2016,07,02,17,18,18.70
2016,07,02,17,19,18.70
2016,07,02,17,20,18.70